FW6905 Weather Reports


Display with metric or nautical units.
time (UTC)temp
F
wind
direction
speed
MPH
gust
MPH
rain 1hr
in
rain 24hr
in
rain mn
in
humidity
%
barometer
mb
20210917233506 64 58 3.0 12.0 0.00 1.45 0.00 77 1015.7
20210917233006 64 61 3.0 11.0 0.00 1.45 0.00 78 1015.7
20210917232506 64 58 7.0 17.0 0.00 1.45 0.00 77 1015.7
20210917232006 64 54 8.0 17.0 0.00 1.45 0.00 77 1015.7
20210917231508 64 51 4.0 11.0 0.00 1.45 0.00 78 1015.7
20210917231007 64 55 6.0 14.0 0.00 1.45 0.00 80 1015.7
20210917230507 64 53 7.0 14.0 0.00 1.45 0.00 81 1015.7
20210917230007 64 64 5.0 10.0 0.00 1.45 0.00 83 1016.7
20210917225506 64 66 6.0 10.0 0.00 1.45 0.00 83 1016.7
20210917225006 64 57 8.0 10.0 0.00 1.45 0.00 84 1016.7
20210917224507 64 56 6.0 12.0 0.00 1.45 0.00 83 1015.7
20210917224006 64 52 5.0 12.0 0.00 1.45 0.00 82 1015.7
20210917223506 64 41 7.0 12.0 0.00 1.45 0.00 84 1015.7
20210917223006 64 49 9.0 13.0 0.00 1.45 0.00 84 1015.7
20210917222506 64 61 7.0 13.0 0.00 1.45 0.00 85 1015.7
20210917222006 64 51 5.0 8.0 0.00 1.45 0.00 88 1015.7
20210917221509 64 38 2.0 12.0 0.00 1.45 0.00 87 1015.7
20210917221006 64 39 4.0 12.0 0.05 1.45 0.00 87 1015.7
20210917220506 64 52 6.0 15.0 0.05 1.45 0.00 88 1015.7
20210917220019 64 58 6.0 15.0 0.05 1.45 0.00 87 1015.7
20210917215506 64 63 8.0 14.0 0.05 1.50 1.45 87 1015.7
20210917215006 65 62 6.0 12.0 0.05 1.50 1.45 88 1015.7
20210917214506 65 55 7.0 12.0 0.05 1.50 1.45 87 1015.7
20210917214006 65 50 9.0 13.0 0.05 1.50 1.45 87 1015.7
20210917213506 65 44 5.0 17.0 0.05 1.50 1.45 88 1015.7
20210917213006 65 27 9.0 17.0 0.05 1.50 1.45 87 1015.7
20210917212506 65 13 9.0 13.0 0.05 1.50 1.45 89 1015.7
20210917212006 65 3 7.0 13.0 0.05 1.54 1.45 94 1015.7
20210917211506 65 5 7.0 15.0 0.05 1.54 1.45 96 1015.7
20210917211006 65 6 4.0 15.0 0.00 1.49 1.40 99 1015.7
20210917210506 65 8 11.0 13.0 0.00 1.49 1.40 100 1015.7
20210917210006 64 19 6.0 11.0 0.00 1.49 1.40 100 1015.7
20210917205506 63 39 6.0 10.0 0.00 1.49 1.40 100 1015.7
20210917205007 63 73 4.0 6.0 0.00 1.53 1.40 100 1015.7
20210917204506 63 106 2.0 3.0 0.00 1.61 1.40 100 1015.7
20210917204006 64 103 2.0 3.0 0.00 1.61 1.40 100 1015.7
20210917203506 64 105 2.0 3.0 0.00 1.61 1.40 100 1015.7
20210917203006 64 143 0.0 2.0 0.00 1.61 1.40 100 1015.7
20210917202506 64 258 1.0 2.0 0.00 1.61 1.40 100 1015.7
20210917202006 64 273 0.0 2.0 0.00 1.61 1.40 100 1015.7
20210917201506 64 183 0.0 4.0 0.00 1.61 1.40 100 1015.7
20210917201006 64 153 1.0 4.0 0.00 1.61 1.40 100 1015.7
20210917200506 64 83 1.0 3.0 0.00 1.61 1.40 100 1015.7
20210917200006 64 70 2.0 4.0 0.00 1.61 1.40 100 1015.7
20210917195506 64 81 3.0 4.0 0.00 1.61 1.40 100 1015.7
20210917195006 64 86 4.0 4.0 0.00 1.61 1.40 100 1015.7
20210917194506 64 271 0.0 2.0 0.00 1.61 1.40 100 1015.7
20210917194006 64 261 0.0 3.0 0.00 1.61 1.40 100 1015.7
20210917193505 64 264 2.0 3.0 0.00 1.61 1.40 100 1015.7
20210917193006 64 112 0.0 2.0 0.00 1.61 1.40 100 1015.7
20210917192506 64 99 0.0 2.0 0.00 1.61 1.40 100 1015.7
20210917192006 64 94 1.0 3.0 0.00 1.61 1.40 100 1015.7
20210917191507 64 93 0.0 4.0 0.00 1.61 1.40 100 1015.7
20210917191007 65 85 4.0 4.0 0.00 1.61 1.40 100 1015.7
20210917190506 65 77 1.0 2.0 0.00 1.61 1.40 100 1015.7
20210917190006 65 131 0.0 2.0 0.00 1.61 1.40 100 1015.7
20210917185506 65 120 0.0 2.0 0.00 1.61 1.40 100 1015.7
20210917185006 65 134 0.0 2.0 0.00 1.61 1.40 100 1015.7
20210917184506 65 163 1.0 2.0 0.00 1.61 1.40 100 1014.7
20210917184006 65 226 2.0 4.0 0.00 1.66 1.40 100 1014.7
20210917183506 65 252 1.0 4.0 0.00 1.66 1.40 100 1014.7
20210917183006 65 283 3.0 3.0 0.00 1.66 1.40 100 1014.7
20210917182506 65 90 2.0 3.0 0.00 1.66 1.40 100 1014.7
20210917182006 65 117 2.0 6.0 0.00 1.66 1.40 100 1014.7
20210917181506 65 118 4.0 6.0 0.00 1.66 1.40 100 1013.7
20210917181006 65 203 0.0 3.0 0.00 1.66 1.40 100 1013.7
20210917180506 66 211 0.0 3.0 0.03 1.66 1.40 99 1013.7
20210917180007 66 245 2.0 3.0 0.03 1.66 1.40 99 1013.7
20210917175506 66 273 1.0 4.0 0.03 1.66 1.40 99 1013.7
20210917175006 66 273 3.0 4.0 0.03 1.70 1.40 99 1013.7
20210917174506 66 283 0.0 3.0 0.08 1.70 1.40 98 1013.7
20210917174007 66 276 1.0 2.0 0.08 1.70 1.40 98 1013.7
20210917173506 66 0 0.0 0.0 0.08 1.70 1.40 97 1013.7
20210917173006 66 112 0.0 2.0 0.08 1.70 1.40 97 1013.7
20210917172506 67 112 0.0 2.0 0.12 1.70 1.40 96 1013.7
20210917172006 67 116 1.0 3.0 0.12 1.70 1.40 95 1013.7
20210917171506 67 153 2.0 3.0 0.12 1.70 1.40 95 1013.7
20210917171006 67 219 0.0 3.0 0.12 1.70 1.40 92 1013.7
20210917170506 67 237 2.0 3.0 0.09 1.67 1.37 89 1013.7
20210917170006 68 270 1.0 3.0 0.09 1.67 1.37 88 1012.7
20210917165506 68 250 1.0 4.0 0.09 1.67 1.37 87 1012.7
20210917165006 69 238 1.0 4.0 0.09 1.67 1.37 83 1012.7
20210917164506 69 243 2.0 4.0 0.04 1.62 1.32 78 1013.7
20210917164006 70 260 3.0 4.0 0.04 1.62 1.32 75 1013.7
20210917163507 71 319 3.0 4.0 0.04 1.62 1.32 73 1013.7
20210917163006 72 351 2.0 4.0 0.04 1.62 1.32 70 1013.7
20210917162506 73 170 1.0 3.0 0.00 1.58 1.28 67 1013.7
20210917162006 73 184 1.0 6.0 0.00 1.58 1.28 65 1013.7
20210917161506 73 216 5.0 6.0 0.00 1.58 1.28 64 1012.7
20210917161006 74 241 2.0 6.0 0.00 1.58 1.28 61 1012.7
20210917160506 74 247 5.0 6.0 0.00 1.58 1.28 60 1012.7
20210917160006 74 248 3.0 6.0 0.00 1.58 1.28 61 1012.7
20210917155506 74 253 4.0 6.0 0.00 1.58 1.28 61 1012.7
20210917155006 74 256 4.0 6.0 0.00 1.58 1.28 60 1012.7
20210917154506 74 255 5.0 6.0 0.00 1.58 1.28 62 1012.7
20210917154006 75 259 2.0 6.0 0.00 1.58 1.28 63 1012.7
20210917153506 75 239 3.0 8.0 0.00 1.58 1.28 64 1012.7
20210917153006 75 231 3.0 8.0 0.00 1.58 1.28 63 1012.7
20210917152506 75 228 5.0 9.0 0.00 1.58 1.28 63 1012.7
20210917152006 76 227 4.0 9.0 0.00 1.62 1.28 60 1012.7
20210917151506 76 226 6.0 8.0 0.00 1.62 1.28 63 1012.7
20210917151006 76 234 3.0 7.0 0.00 1.66 1.28 66 1012.7
20210917150506 76 243 4.0 8.0 0.00 1.66 1.28 67 1012.7
20210917150006 76 250 4.0 8.0 0.00 1.66 1.28 67 1012.7
20210917145506 76 255 4.0 7.0 0.00 1.66 1.28 66 1012.7
20210917145007 76 249 4.0 7.0 0.00 1.66 1.28 68 1012.7
20210917144506 76 261 4.0 7.0 0.00 1.66 1.28 67 1012.7
20210917144006 76 282 3.0 6.0 0.00 1.66 1.28 65 1012.7
20210917143506 76 281 4.0 5.0 0.00 1.66 1.28 65 1012.7
20210917143006 76 256 4.0 5.0 0.00 1.66 1.28 66 1012.7
20210917142506 76 225 4.0 6.0 0.00 1.66 1.28 67 1012.7
20210917142007 76 225 4.0 9.0 0.00 1.66 1.28 70 1012.7
20210917141506 76 255 4.0 9.0 0.00 1.66 1.28 68 1012.7
20210917141007 76 241 4.0 6.0 0.00 1.66 1.28 62 1012.7
20210917140506 76 165 2.0 5.0 0.00 1.66 1.28 63 1012.7
20210917140006 77 182 3.0 5.0 0.00 1.66 1.28 56 1012.7
20210917135506 77 220 3.0 4.0 0.00 1.66 1.28 64 1012.7
20210917135006 77 222 2.0 5.0 0.00 1.66 1.28 68 1012.7
20210917134506 77 211 3.0 6.0 0.00 1.66 1.28 72 1012.7
20210917134007 76 220 3.0 7.0 0.00 1.66 1.28 70 1012.7
20210917133506 76 220 6.0 7.0 0.00 1.66 1.28 71 1012.7
20210917133006 76 198 5.0 7.0 0.00 1.66 1.28 69 1012.7
20210917132506 76 191 3.0 4.0 0.00 1.66 1.28 59 1012.7
20210917132007 76 135 3.0 4.0 0.00 1.66 1.28 67 1012.7
20210917131506 76 90 1.0 4.0 0.00 1.66 1.28 65 1012.7
20210917131006 77 74 3.0 4.0 0.00 1.66 1.28 65 1012.7
20210917130506 77 91 2.0 5.0 0.00 1.66 1.28 66 1012.7
20210917130006 77 143 4.0 5.0 0.00 1.66 1.28 61 1012.7
20210917125507 77 161 2.0 5.0 0.00 1.66 1.28 71 1012.7
20210917125006 76 159 3.0 5.0 0.00 1.66 1.28 65 1012.7
20210917124506 76 172 2.0 5.0 0.00 1.66 1.28 71 1012.7
20210917124006 76 166 2.0 4.0 0.00 1.66 1.28 74 1012.7
20210917123506 76 130 2.0 4.0 0.00 1.66 1.28 74 1012.7
20210917123006 75 131 2.0 4.0 0.00 1.66 1.28 77 1012.7
20210917122506 75 177 2.0 4.0 0.00 1.66 1.28 77 1012.7
20210917122007 74 192 2.0 4.0 0.00 1.66 1.28 86 1012.7
20210917121506 74 212 3.0 4.0 0.00 1.66 1.28 83 1012.7
20210917121006 74 236 1.0 4.0 0.00 1.66 1.28 91 1012.7
20210917120506 74 213 2.0 3.0 0.00 1.66 1.28 90 1012.7
20210917120007 73 189 1.0 4.0 0.00 1.66 1.28 91 1013.7
20210917115505 73 167 2.0 5.0 0.00 1.66 1.28 91 1013.7
20210917115006 73 170 2.0 5.0 0.00 1.66 1.28 95 1013.7
20210917114507 72 175 3.0 4.0 0.00 1.66 1.28 99 1013.7
20210917114006 72 333 1.0 3.0 0.00 1.70 1.28 100 1013.7
20210917113506 72 313 0.0 2.0 0.00 1.70 1.28 100 1013.7
20210917113006 71 200 1.0 3.0 0.00 1.70 1.28 100 1013.7
20210917112506 71 200 1.0 3.0 0.00 1.70 1.28 100 1013.7
20210917112006 70 323 0.0 2.0 0.00 1.70 1.28 100 1013.7
20210917111506 70 303 1.0 2.0 0.00 1.70 1.28 100 1013.7
20210917111006 70 274 1.0 3.0 0.00 1.70 1.28 100 1013.7
20210917110507 70 299 1.0 3.0 0.00 1.70 1.28 100 1013.7
20210917110006 70 308 2.0 3.0 0.00 1.70 1.28 100 1013.7
20210917105506 70 310 3.0 3.0 0.00 1.70 1.28 100 1013.7
20210917105006 69 141 1.0 2.0 0.00 1.70 1.28 100 1013.7
20210917104505 69 186 1.0 3.0 0.00 1.74 1.28 100 1012.7
20210917104006 69 226 2.0 3.0 0.00 1.74 1.28 100 1012.7
20210917103506 69 219 0.0 2.0 0.00 1.74 1.28 100 1012.7
20210917103006 68 74 0.0 2.0 0.00 1.78 1.28 100 1013.7
20210917102506 68 323 0.0 2.0 0.00 1.78 1.28 100 1013.7
20210917102006 68 307 1.0 3.0 0.00 1.78 1.28 100 1013.7
20210917101507 68 303 2.0 3.0 0.00 1.78 1.28 100 1012.7
20210917101006 68 288 0.0 3.0 0.00 1.78 1.28 100 1012.7
20210917100506 67 248 0.0 1.0 0.00 1.78 1.28 100 1012.7
20210917100006 67 335 0.0 2.0 0.00 1.78 1.28 100 1013.7
20210917095506 67 162 0.0 2.0 0.00 1.78 1.28 100 1013.7
20210917095006 67 158 0.0 3.0 0.00 1.78 1.28 100 1013.7
20210917094506 67 161 0.0 3.0 0.00 1.78 1.28 100 1013.7
20210917094006 67 157 0.0 3.0 0.00 1.78 1.28 100 1013.7
20210917093506 67 153 2.0 4.0 0.00 1.78 1.28 100 1013.7
20210917093006 67 139 3.0 4.0 0.00 1.78 1.28 100 1013.7
20210917092506 66 108 2.0 3.0 0.00 1.78 1.28 100 1013.7
20210917092006 66 101 2.0 3.0 0.00 1.78 1.28 100 1013.7
20210917091506 66 139 1.0 4.0 0.00 1.78 1.28 100 1013.7
20210917091006 66 142 1.0 4.0 0.00 1.78 1.28 100 1013.7
20210917090506 66 122 2.0 4.0 0.00 1.78 1.28 100 1013.7
20210917090006 66 111 3.0 4.0 0.00 1.78 1.28 100 1013.7
20210917085506 66 102 3.0 4.0 0.00 1.78 1.28 100 1013.7
20210917085006 66 121 2.0 4.0 0.00 1.78 1.28 100 1013.7
20210917084506 66 134 1.0 3.0 0.00 1.78 1.28 100 1013.7
20210917084006 66 120 1.0 3.0 0.00 1.78 1.28 100 1013.7
20210917083506 66 118 1.0 3.0 0.00 1.78 1.28 100 1013.7
20210917083006 66 122 1.0 3.0 0.00 1.78 1.28 100 1013.7
20210917082506 66 128 1.0 3.0 0.00 1.78 1.28 100 1013.7
20210917082006 65 122 2.0 3.0 0.00 1.78 1.28 100 1013.7
20210917081506 65 131 1.0 3.0 0.00 1.78 1.28 100 1013.7
20210917081006 65 139 3.0 3.0 0.00 1.78 1.28 100 1013.7
20210917080506 65 135 2.0 3.0 0.00 1.78 1.28 100 1013.7
20210917080006 65 123 1.0 2.0 0.00 1.78 1.28 100 1012.7
20210917075506 65 0 0.0 0.0 0.00 1.78 1.28 100 1012.7
20210917075006 65 0 0.0 0.0 0.00 1.78 1.28 100 1012.7
20210917074506 65 0 0.0 0.0 0.00 1.78 1.28 100 1013.7
20210917074007 65 0 0.0 0.0 0.00 1.78 1.28 100 1013.7
20210917073506 65 0 0.0 0.0 0.00 1.78 1.28 100 1013.7
20210917073006 65 0 0.0 0.0 0.00 1.78 1.28 100 1013.7
20210917072506 65 292 0.0 1.0 0.00 1.78 1.28 100 1013.7
20210917072006 65 214 0.0 2.0 0.00 1.78 1.28 100 1013.7
20210917071506 65 203 0.0 2.0 0.00 1.78 1.28 100 1012.7
20210917071006 64 0 0.0 0.0 0.00 1.78 1.28 100 1012.7
20210917070506 64 0 0.0 0.0 0.00 1.78 1.28 100 1012.7
20210917070007 64 292 0.0 2.0 0.00 1.78 1.28 100 1013.7
20210917065505 64 292 1.0 2.0 0.00 1.78 1.28 100 1013.7
20210917065006 64 0 0.0 0.0 0.00 1.78 1.28 100 1013.7
20210917064506 64 0 0.0 0.0 0.04 1.78 1.28 100 1013.7
20210917064006 64 0 0.0 0.0 0.04 1.78 1.28 100 1013.7
20210917063506 64 0 0.0 0.0 0.04 1.78 1.28 100 1013.7
20210917063006 64 0 0.0 0.0 0.04 1.78 1.28 100 1013.7
20210917062506 64 0 0.0 0.0 0.04 1.78 1.28 100 1013.7
20210917062007 64 0 0.0 0.0 0.04 1.78 1.28 100 1013.7
20210917061508 64 46 0.0 1.0 0.08 1.78 1.28 100 1012.7
20210917061006 64 299 0.0 2.0 0.08 1.78 1.28 100 1012.7
20210917060506 64 190 0.0 3.0 0.08 1.78 1.28 100 1012.7
20210917060006 64 145 0.0 3.0 0.08 1.78 1.28 100 1012.7
20210917055506 64 98 1.0 3.0 0.08 1.78 1.28 100 1012.7
20210917055006 64 75 1.0 3.0 0.08 1.78 1.28 100 1012.7
20210917054505 64 59 0.0 3.0 0.04 1.74 1.24 100 1012.7
20210917054006 64 182 1.0 4.0 0.04 1.74 1.24 100 1012.7
20210917053506 64 227 2.0 4.0 0.08 1.74 1.24 100 1012.7
20210917053007 64 262 3.0 4.0 0.08 1.74 1.24 100 1012.7
20210917052506 64 339 0.0 3.0 0.08 1.74 1.24 100 1012.7
20210917052006 64 67 0.0 5.0 0.08 1.74 1.24 100 1012.7
20210917051506 64 76 2.0 5.0 0.09 1.70 1.20 100 1013.7
20210917051006 64 345 3.0 4.0 0.09 1.70 1.20 100 1013.7
20210917050506 64 308 1.0 4.0 0.09 1.70 1.20 100 1013.7
20210917050006 64 302 0.0 4.0 0.13 1.70 1.20 100 1012.7
20210917045506 64 294 2.0 3.0 0.13 1.70 1.20 100 1012.7
20210917045006 64 65 0.0 3.0 0.13 1.70 1.20 100 1012.7
20210917044505 64 34 1.0 3.0 0.17 1.70 1.20 100 1013.7
20210917044006 64 8 2.0 2.0 0.17 1.70 1.20 100 1013.7
20210917043506 64 158 0.0 3.0 0.13 1.66 1.16 100 1013.7
20210917043006 64 167 0.0 3.0 0.13 1.66 1.16 100 1013.7
20210917042506 64 169 0.0 4.0 0.13 1.66 1.16 100 1013.7
20210917042006 64 148 3.0 4.0 0.17 1.66 1.16 100 1013.7
20210917041506 64 136 1.0 3.0 0.28 1.61 1.11 100 1013.7
20210917041006 64 145 0.0 3.0 0.28 1.61 1.11 100 1013.7
20210917040506 64 158 0.0 3.0 0.37 1.61 1.11 100 1013.7
20210917040006 64 189 0.0 4.0 0.41 1.57 1.07 100 1013.7
20210917035507 64 195 2.0 4.0 0.50 1.57 1.07 100 1013.7
20210917035006 64 195 3.0 5.0 0.62 1.57 1.07 100 1013.7
20210917034506 64 94 0.0 5.0 0.70 1.53 1.03 100 1013.7
20210917034006 64 97 2.0 5.0 0.74 1.53 1.03 100 1013.7
20210917033506 64 111 3.0 8.0 0.74 1.53 1.03 100 1013.7
20210917033006 64 115 3.0 8.0 0.74 1.53 1.03 100 1013.7
20210917032505 64 92 3.0 8.0 0.75 1.49 0.99 100 1013.7
20210917032006 64 67 5.0 6.0 0.71 1.45 0.95 100 1013.7
20210917031506 64 115 3.0 5.0 0.59 1.33 0.83 100 1013.7
20210917031006 64 157 1.0 5.0 0.54 1.28 0.78 100 1013.7
20210917030506 64 159 4.0 5.0 0.50 1.24 0.74 100 1013.7
20210917030006 65 11 2.0 6.0 0.42 1.16 0.66 100 1012.7
20210917025506 65 55 3.0 6.0 0.49 1.07 0.57 100 1012.7
20210917025006 65 140 4.0 6.0 0.45 0.95 0.45 100 1012.7
20210917024506 66 147 4.0 6.0 0.33 0.83 0.33 100 1012.7
20210917024006 66 113 3.0 5.0 0.29 0.79 0.29 100 1012.7
20210917023506 66 125 2.0 8.0 0.29 0.79 0.29 100 1012.7
20210917023007 66 130 5.0 8.0 0.29 0.79 0.29 100 1012.7
20210917022506 66 113 4.0 6.0 0.24 0.74 0.24 100 1012.7
20210917022006 66 104 4.0 4.0 0.24 0.74 0.24 100 1012.7
20210917021506 66 154 2.0 5.0 0.24 0.74 0.24 100 1013.7
20210917021006 66 202 3.0 5.0 0.24 0.74 0.24 100 1013.7
20210917020506 66 304 1.0 4.0 0.24 0.74 0.24 100 1013.7
20210917020007 66 326 1.0 4.0 0.24 0.74 0.24 100 1013.7
20210917015505 66 326 1.0 3.0 0.08 0.58 0.08 100 1013.7
20210917015006 66 0 0.0 0.0 0.00 0.50 0.00 100 1013.7
20210917014506 66 68 0.0 2.0 0.00 0.50 0.00 100 1013.7
20210917014007 66 341 0.0 2.0 0.00 0.50 0.00 100 1013.7
20210917013506 66 321 1.0 2.0 0.00 0.50 0.00 100 1013.7
20210917013006 66 337 0.0 2.0 0.00 0.50 0.00 100 1013.7
20210917012506 66 0 0.0 0.0 0.00 0.50 0.00 100 1013.7
20210917012006 66 0 0.0 0.0 0.00 0.50 0.00 100 1013.7
20210917011506 66 0 0.0 0.0 0.00 0.50 0.00 100 1014.7
20210917011007 66 0 0.0 0.0 0.00 0.50 0.00 100 1014.7
20210917010506 66 0 0.0 0.0 0.00 0.50 0.00 100 1014.7
20210917010006 66 0 0.0 0.0 0.00 0.50 0.00 100 1015.7
20210917005506 66 0 0.0 0.0 0.00 0.50 0.00 100 1015.7
20210917005006 66 0 0.0 0.0 0.00 0.50 0.00 100 1015.7
20210917004506 66 0 0.0 0.0 0.00 0.50 0.00 100 1015.7
20210917004006 66 0 0.0 0.0 0.00 0.50 0.00 100 1015.7
20210917003506 66 0 0.0 0.0 0.00 0.50 0.00 100 1015.7
20210917003006 66 0 0.0 0.0 0.00 0.50 0.00 100 1015.7
20210917002506 66 0 0.0 0.0 0.00 0.50 0.00 100 1015.7
20210917002006 66 0 0.0 0.0 0.00 0.50 0.00 100 1015.7
20210917001505 66 0 0.0 0.0 0.00 0.50 0.00 100 1015.7
20210917001007 66 0 0.0 0.0 0.00 0.50 0.00 100 1015.7
20210917000506 66 0 0.0 0.0 0.00 0.50 0.00 100 1015.7
20210917000006 66 0 0.0 0.0 0.00 0.50 0.00 100 1015.7
20210916235506 66 0 0.0 0.0 0.00 0.50 0.00 100 1015.7
20210916235006 66 0 0.0 0.0 0.00 0.50 0.00 100 1015.7
20210916234506 66 0 0.0 0.0 0.00 0.50 0.00 100 1015.7
20210916234006 66 0 0.0 0.0 0.00 0.50 0.00 100 1015.7